Location: Ceske Budejovice
(48.9830°N, 14.4670°E)
Time: 00:27:26
(UTC+02:00)

ISS - Visible Passes

Search period start: 30 April 2025 00:00
Search period end: 10 May 2025 00:00
Orbit: 417 x 420 km, 51.6° (Epoch: 29 April)

Date Brightness Start Highest point End Pass type
(mag) Time Alt. Az. Time Alt. Az. Time Alt. Az.
30 Apr -3.5 03:00:32 64° E 03:00:32 64° E 03:03:28 10° ENE visible
30 Apr -3.0 04:33:45 10° W 04:37:02 52° N 04:40:20 10° ENE visible
01 May -1.6 02:14:15 22° E 02:14:15 22° E 02:15:36 10° ENE visible
01 May -3.2 03:47:11 22° W 03:49:07 56° N 03:52:27 10° ENE visible
02 May -3.5 03:00:51 58° NW 03:01:13 64° NNW 03:04:33 10° ENE visible
02 May -3.1 04:34:56 10° WNW 04:38:15 55° N 04:41:34 10° E visible
03 May -2.4 02:14:31 36° ENE 02:14:31 36° ENE 02:16:40 10° ENE visible
03 May -3.0 03:47:25 13° WNW 03:50:17 52° N 03:53:36 10° E visible
04 May -1.1 01:28:09 14° ENE 01:28:09 14° ENE 01:28:43 10° ENE visible
04 May -3.0 03:01:03 32° WNW 03:02:18 52° N 03:05:36 10° ENE visible
04 May -3.6 04:35:56 10° WNW 04:39:18 77° NNE 04:42:40 10° ESE visible
05 May -3.0 02:14:39 52° NNE 02:14:39 52° NNE 02:17:36 10° ENE visible
05 May -3.3 03:47:58 10° WNW 03:51:19 63° NNE 03:54:39 10° E visible
06 May -1.6 01:28:16 22° ENE 01:28:16 22° ENE 01:29:36 10° ENE visible
06 May -3.1 03:01:10 20° WNW 03:03:17 55° N 03:06:36 10° E visible
06 May -3.7 04:36:49 10° WNW 04:40:08 60° SSW 04:43:27 10° SE visible
07 May -3.0 02:14:48 48° NNW 02:15:13 51° N 02:18:31 10° E visible
07 May -3.9 03:48:47 10° WNW 03:52:10 83° SSW 03:55:31 10° ESE visible
08 May -2.0 01:28:33 29° ENE 01:28:33 29° ENE 01:30:25 10° ENE visible
08 May -3.7 03:01:28 15° WNW 03:04:07 76° NNE 03:07:29 10° ESE visible
08 May -2.9 04:37:45 10° W 04:40:42 29° SW 04:43:38 10° SSE visible
08 May -1.6 21:24:51 10° SSE 21:25:14 11° SSE 21:25:14 11° SSE visible
09 May -3.3 02:15:35 54° NNW 02:16:02 62° NNE 02:19:22 10° E visible
09 May -3.4 03:49:34 10° WNW 03:52:45 42° SSW 03:55:57 10° SE visible
09 May -3.3 22:11:04 10° SW 22:14:12 37° SSE 22:16:53 13° E visible
09 May -2.9 23:47:32 10° W 23:50:03 45° WNW 23:50:03 45° WNW visible
